Location: Byhalia Creek
(34.8270°N, 89.8040°W)
Time: 08:24:56
(UTC+00:00)

NOSS 3 (A) - Pass Details

Date: 22 April 2026
Orbit: 160 x 953 km, 63.3° (Epoch: 23 April)

Event Time Altitude Azimuth Distance (km) Brightness Sun altitude
Rises 01:31:31 0° 200° (SSW) 1,896 8.0 -11.5°
Reaches altitude 10° 01:33:37 10° 191° (S) 975 6.5 -11.9°
Enters shadow 01:35:09 30° 154° (SSE) 411 4.3 -12.1°
